sat.trackr.live / text

‹ back to catalog

STARLINK-5984

NORAD 56329 · 2023-058N

PAYLOAD ACTIVE UNKNOWN

§ Identity

Operator
Country
US
Launch date
2023-04-27
Launch site
AFWTR
Launch vehicle
Mass (kg)
RCS (m²)

Purposes: comms

External: N2YO · Heavens-Above · Gunter

§ Orbital elements

Epoch: 2026-05-24T22:51:41.420736Z

Period
95.64 min
Inclination
97.4488°
Eccentricity
0.0001933
Mean motion
15.05665883 rev/d
Perigee alt
548.1 km
Apogee alt
550.8 km
Semi-major
6,927.6 km
B*
-1.2786e-4
RAAN
146.0485°
Arg perigee
92.5195°
Mean anomaly
267.6253°
Rev number
16,967

§ Raw data

STARLINK-59841 56329U 23058N   26144.95256274 -.00001904  00000+0 -12786-3 0  99922 56329  97.4488 146.0485 0001933  92.5195 267.6253 15.05665883169679

JSON: /api/v1/satellites/56329 · /tle

For live sub-satellite position, see the globe view (requires WebGL).

§ Visibility from observer

Set your observer location to see the next 7 days of passes ≥ 10°. The values pass through the URL so the page stays shareable.

No JS? Fill the form by hand. The geolocation button needs JavaScript.